This demonstration page uses our WeatherBlox Daily Observations layout. Learn more.

Left ArrowRight Arrow

40.92945, -100.16068

Hourly Observations for April 8, 2020

Temp ( °F °C ) Dew Point ( °F °C ) Humidity (%) Winds ( mph kmh ) Pressure ( in mb ) Visibility ( mi km ) Precip ( " mm )
12:15 am 00:15 Clear 45 7.1 36 2.4 72 72 NW 10 17 29.85 1011 10 16 0.00 0.00
12:35 am 00:35 Clear 44 6.9 36 2.4 73 73 NW 7 11 29.85 1011 10 16 0.00 0.00
12:55 am 00:55 Clear 44 6.9 35 1.9 71 71 NW 10 17 29.85 1011 10 16 0.00 0.00
1:15 am 01:15 Clear 45 7.2 36 2.1 70 70 W 6 9 29.86 1011 10 16 0.00 0.00
1:35 am 01:35 Clear 44 6.4 36 2.3 75 75 NW 7 11 29.86 1011 10 16 0.00 0.00
1:55 am 01:55 Clear 44 6.5 35 1.7 72 72 NW 8 13 29.86 1011 10 16 0.00 0.00
2:15 am 02:15 Clear 45 7 37 2.6 74 74 WNW 8 13 29.86 1011 10 16 0.00 0.00
2:35 am 02:35 Clear 49 9.3 38 3.5 67 67 WNW 9 15 29.83 1010 10 16 0.00 0.00
2:55 am 02:55 Clear 49 9.3 38 3.5 67 67 WNW 10 17 29.83 1010 10 16 0.00 0.00
3:15 am 03:15 Clear 49 9.2 38 3.6 68 68 WNW 9 15 29.83 1010 10 16 0.00 0.00
3:35 am 03:35 Partly Cloudy 50 9.8 38 3.3 64 64 WNW 8 13 29.82 1010 10 16 0.00 0.00
3:55 am 03:55 Partly Cloudy 49 9.6 38 3.4 66 66 NW 12 19 29.82 1010 10 16 0.00 0.00
4:15 am 04:15 Clear 49 9.3 38 3.1 66 66 WNW 8 13 29.84 1010 10 16 0.00 0.00
4:35 am 04:35 Partly Cloudy 50 10 38 3.5 64 64 NW 9 15 29.82 1010 10 16 0.00 0.00
4:55 am 04:55 Mostly Cloudy 49 9.7 37 2.7 62 62 NNW 13 20 29.82 1010 10 16 0.00 0.00
5:15 am 05:15 Partly Cloudy 50 10 37 2.8 61 61 NW 12 19 29.82 1010 10 16 0.00 0.00
5:35 am 05:35 Clear 50 10.2 37 2.6 60 60 NW 10 17 29.82 1010 10 16 0.00 0.00
5:55 am 05:55 Partly Cloudy 49 9.7 37 2.5 61 61 NNW 13 20 29.83 1010 10 16 0.00 0.00
6:15 am 06:15 Partly Cloudy 50 9.8 36 2.4 60 60 NNW 15 24 29.83 1010 10 16 0.00 0.00
6:35 am 06:35 Partly Cloudy 51 10.3 35 1.9 56 56 NNW 21 33 29.82 1010 10 16 0.00 0.00
6:55 am 06:55 Partly Cloudy 49 9.5 36 2 60 60 NW 16 26 29.84 1010 10 16 0.00 0.00
7:15 am 07:15 Sunny 47 8.5 35 1.9 64 64 NW 12 19 29.86 1011 10 16 0.00 0.00
7:35 am 07:35 Sunny 50 10.2 35 1.7 56 56 NW 12 19 29.85 1011 10 16 0.00 0.00
7:55 am 07:55 Sunny 47 8.6 36 2.1 64 64 NW 12 19 29.88 1012 10 16 0.00 0.00
8:15 am 08:15 Sunny 49 9.7 35 1.9 59 59 NW 15 24 29.88 1012 10 16 0.00 0.00
8:35 am 08:35 Sunny 52 10.9 35 1.9 54 54 WNW 20 31 29.88 1012 10 16 0.00 0.00
8:55 am 08:55 Sunny 54 12.3 36 2.2 50 50 NW 18 30 29.87 1012 10 16 0.00 0.00
9:15 am 09:15 Sunny 55 12.8 37 2.7 51 51 NW 18 30 29.88 1012 10 16 0.00 0.00
9:35 am 09:35 Sunny 58 14.3 40 4.2 51 51 NNW 17 28 29.87 1012 10 16 0.00 0.00
9:55 am 09:55 Sunny 59 14.8 40 4.6 51 51 N 25 41 29.89 1012 10 16 0.00 0.00
10:15 am 10:15 Sunny 58 14.7 38 3.4 47 47 N 21 33 29.91 1013 10 16 0.00 0.00
10:35 am 10:35 Sunny 59 14.9 38 3.2 46 46 N 21 33 29.92 1013 10 16 0.00 0.00
10:55 am 10:55 Sunny 61 16.2 37 2.9 41 41 NNE 24 39 29.91 1013 10 16 0.00 0.00
11:15 am 11:15 Sunny 63 17 37 2.7 39 39 NE 20 31 29.91 1013 10 16 0.00 0.00
11:35 am 11:35 Sunny 64 17.6 36 2.2 36 36 NNE 24 39 29.90 1013 10 16 0.00 0.00
11:55 am 11:55 Sunny 65 18.2 37 2.6 35 35 NNE 23 37 29.91 1013 10 16 0.00 0.00
12:15 pm 12:15 Sunny 65 18.2 38 3.2 37 37 N 22 35 29.91 1013 10 16 0.00 0.00
12:35 pm 12:35 Sunny 65 18.5 38 3.3 37 37 NNE 25 41 29.92 1013 10 16 0.00 0.00
12:55 pm 12:55 Sunny 65 18.6 39 3.8 38 38 N 22 35 29.91 1013 10 16 0.00 0.00
1:15 pm 13:15 Sunny 65 18.3 40 4.2 39 39 N 20 31 29.93 1013 10 16 0.00 0.00
1:35 pm 13:35 Sunny 64 17.6 40 4.2 41 41 N 24 39 29.94 1014 10 16 0.00 0.00
1:55 pm 13:55 Sunny 63 17.3 40 4.4 43 43 N 20 31 29.96 1014 10 16 0.00 0.00
2:15 pm 14:15 Sunny 62 16.8 41 4.8 45 45 N 21 33 29.96 1015 10 16 0.00 0.00
2:35 pm 14:35 Sunny 62 16.4 41 4.8 46 46 N 21 33 29.97 1015 10 16 0.00 0.00
2:55 pm 14:55 Sunny 61 16.1 41 5.1 48 48 N 18 30 29.98 1015 10 16 0.00 0.00
3:15 pm 15:15 Sunny 60 15.5 39 4.1 47 47 N 20 31 29.99 1016 10 16 0.00 0.00
3:35 pm 15:35 Sunny 59 15.1 37 2.9 44 44 N 20 31 30.00 1016 10 16 0.00 0.00
3:55 pm 15:55 Sunny 59 15 35 1.5 40 40 N 18 30 30.01 1016 10 16 0.00 0.00
4:15 pm 16:15 Sunny 59 15 36 2 42 42 NNE 16 26 30.01 1016 10 16 0.00 0.00
4:35 pm 16:35 Sunny 59 15.1 37 2.5 43 43 NNE 13 20 29.99 1016 10 16 0.00 0.00
4:55 pm 16:55 Sunny 60 15.3 36 2.3 42 42 NNE 14 22 29.99 1016 10 16 0.00 0.00
5:15 pm 17:15 Sunny 59 15 35 1.9 41 41 N 15 24 30.00 1016 10 16 0.00 0.00
5:35 pm 17:35 Sunny 58 14.7 35 1.5 41 41 N 15 24 30.00 1016 10 16 0.00 0.00
5:55 pm 17:55 Sunny 58 14.7 35 1.6 41 41 NNE 15 24 29.99 1016 10 16 0.00 0.00
6:15 pm 18:15 Sunny 58 14.5 34 1.3 41 41 NNE 14 22 30.00 1016 10 16 0.00 0.00
6:35 pm 18:35 Sunny 57 14 33 0.6 40 40 NNE 14 22 30.00 1016 10 16 0.00 0.00
6:55 pm 18:55 Sunny 57 13.7 33 0.8 42 42 N 14 22 30.01 1016 10 16 0.00 0.00
7:15 pm 19:15 Sunny 56 13.4 33 0.4 41 41 NNE 12 19 30.00 1016 10 16 0.00 0.00
7:35 pm 19:35 Sunny 55 12.8 33 0.4 43 43 N 10 17 30.02 1016 10 16 0.00 0.00
7:55 pm 19:55 Sunny 53 11.8 32 0.2 45 45 NNE 9 15 30.02 1017 10 16 0.00 0.00
8:15 pm 20:15 Clear 51 10.6 32 0 48 48 NNE 8 13 30.05 1017 10 16 0.00 0.00
8:35 pm 20:35 Clear 49 9.4 32 0 52 52 NNE 9 15 30.07 1018 10 16 0.00 0.00
8:55 pm 20:55 Clear 47 8.5 32 -0.2 55 55 NNE 8 13 30.09 1019 10 16 0.00 0.00
9:15 pm 21:15 Clear 45 7.2 32 -0.2 60 60 NNE 7 11 30.10 1019 10 16 0.00 0.00
9:35 pm 21:35 Clear 43 6.1 31 -0.5 63 63 NNE 8 13 30.12 1020 10 16 0.00 0.00
9:55 pm 21:55 Clear 42 5.4 31 -0.6 66 66 NNE 7 11 30.12 1020 10 16 0.00 0.00
10:15 pm 22:15 Clear 40 4.6 30 -1 67 67 NNE 6 9 30.14 1021 10 16 0.00 0.00
10:35 pm 22:35 Clear 41 5 30 -1.2 65 65 NNE 5 7 30.14 1021 10 16 0.00 0.00
10:55 pm 22:55 Clear 38 3.4 29 -1.8 69 69 Calm 30.15 1021 10 16 0.00 0.00
11:15 pm 23:15 Clear 36 2.1 28 -2 75 75 NNE 7 11 30.18 1022 10 16 0.00 0.00
11:35 pm 23:35 Clear 36 2.1 30 -1.3 78 78 N 9 15 30.18 1022 10 16 0.00 0.00
11:55 pm 23:55 Clear 36 2.2 29 -1.4 77 77 Calm 30.18 1022 10 16 0.00 0.00

Powered by AerisWeather